Retour au catalogue

SL-8 DEB *

ActifLEO
NORAD 6252·DEBRIS·🇷🇺 Russia

Lancé Mar 15, 1965 depuis Baikonur Cosmodrome

Loading…

Prochains Passages (prochaines 24 heures)

TLE

FraisSource: Space-Track

Époque: Sep 12, 2026, 19:29 UTC

1 06252U 65020FD  26255.81209340 -.00000121  00000-0 -23980-3 0  9996
2 06252  56.0370 187.6040 0197588  29.7567 358.9291 12.30085490675869

Suivez SL-8 DEB * en temps réel avec AllMySat

Download on the App Store